Location: Newark
(54.1978°N, 18.3264°E)
Time: 07:54:16
(UTC+00:00)

OTV 5 (USA 277) - Pass Details

Date: 27 August 2019
Orbit: 295 x 339 km, 54.5° (Epoch: 08 September)

Event Time Altitude Azimuth Distance (km) Brightness Sun altitude
Rises 18:39:37 0° 223° (SW) 1,999 ? -7.4°
Reaches altitude 10° 18:41:43 10° 210° (SSW) 1,171 ? -7.7°
Maximum altitude 18:43:57 26° 150° (SSE) 633 ? -8.0°
Drops below altitude 10° 18:46:12 10° 90° (E) 1,167 ? -8.2°
Enters shadow 18:46:15 10° 89° (E) 1,184 ? -8.2°
